| time (UTC) | temp F | wind direction | speed knots | gust knots | rain 1hr in | rain 24hr in | rain mn in | humidity % | barometer mb |
| 20260502223057 | 39 | 213 | 0.0 | 0.0 | 0.00 | 0.00 | 0.00 | 59 | 1019.4 |
| 20260502221612 | 39 | 230 | 0.0 | 0.0 | 0.00 | 0.00 | 0.00 | 59 | 1019.4 |
| 20260502220101 | 40 | 232 | 0.0 | 0.0 | 0.00 | 0.00 | 0.00 | 58 | 1019.4 |
| 20260502214553 | 40 | 231 | 0.0 | 0.0 | 0.00 | 0.00 | 0.00 | 58 | 1019.3 |
| 20260502213052 | 40 | 230 | 0.0 | 0.0 | 0.00 | 0.00 | 0.00 | 58 | 1019.3 |
| 20260502211550 | 40 | 230 | 0.0 | 0.0 | 0.00 | 0.00 | 0.00 | 57 | 1019.4 |
| 20260502210107 | 40 | 222 | 0.0 | 0.0 | 0.00 | 0.00 | 0.00 | 57 | 1019.3 |
| 20260502204549 | 41 | 221 | 0.0 | 0.9 | 0.00 | 0.00 | 0.00 | 57 | 1019.2 |
| 20260502203048 | 41 | 226 | 0.0 | 0.0 | 0.00 | 0.00 | 0.00 | 57 | 1019.2 |
| 20260502201550 | 41 | 226 | 0.0 | 0.0 | 0.00 | 0.00 | 0.00 | 56 | 1019.1 |
| 20260502200059 | 41 | 218 | 0.0 | 0.9 | 0.00 | 0.00 | 0.00 | 56 | 1019.0 |
| 20260502194543 | 41 | 222 | 0.0 | 1.7 | 0.00 | 0.00 | 0.00 | 55 | 1019.1 |
| 20260502193044 | 42 | 231 | 0.0 | 0.0 | 0.00 | 0.00 | 0.00 | 55 | 1019.1 |
| 20260502191549 | 42 | 235 | 0.0 | 0.9 | 0.00 | 0.00 | 0.00 | 54 | 1019.0 |
| 20260502190047 | 42 | 239 | 0.0 | 0.0 | 0.00 | 0.00 | 0.00 | 54 | 1018.9 |
| 20260502184541 | 42 | 247 | 0.0 | 0.0 | 0.00 | 0.00 | 0.00 | 53 | 1018.8 |
| 20260502183040 | 43 | 208 | 0.0 | 2.6 | 0.00 | 0.00 | 0.00 | 52 | 1018.8 |
| 20260502181540 | 43 | 233 | 0.0 | 0.0 | 0.00 | 0.00 | 0.00 | 52 | 1018.8 |
| 20260502163045 | 46 | 239 | 0.0 | 0.0 | 0.00 | 0.00 | 0.00 | 47 | 1018.6 |
| 20260502161533 | 47 | 238 | 0.0 | 0.0 | 0.00 | 0.00 | 0.00 | 45 | 1018.4 |
| 20260502151554 | 49 | 258 | 0.0 | 0.0 | 0.00 | 0.00 | 0.00 | 41 | 1018.0 |
| 20260502123029 | 51 | 279 | 0.0 | 8.7 | 0.00 | 0.00 | 0.00 | 39 | 1018.2 |
| 20260502121524 | 50 | 320 | 0.9 | 9.6 | 0.00 | 0.00 | 0.00 | 39 | 1018.2 |
| 20260502114522 | 50 | 268 | 2.6 | 10.4 | 0.00 | 0.00 | 0.00 | 38 | 1018.1 |
| 20260502113032 | 50 | 273 | 2.6 | 10.4 | 0.00 | 0.00 | 0.00 | 38 | 1018.1 |
| 20260502111521 | 50 | 264 | 0.0 | 11.3 | 0.00 | 0.00 | 0.00 | 40 | 1018.2 |
| 20260502110030 | 50 | 235 | 0.9 | 7.8 | 0.00 | 0.00 | 0.00 | 40 | 1018.1 |
| 20260502104520 | 51 | 279 | 0.9 | 8.7 | 0.00 | 0.00 | 0.00 | 39 | 1018.2 |
| 20260502103020 | 50 | 280 | 4.3 | 10.4 | 0.00 | 0.00 | 0.00 | 39 | 1018.2 |
| 20260502101519 | 50 | 268 | 1.7 | 12.2 | 0.00 | 0.00 | 0.00 | 39 | 1018.2 |
| 20260502091515 | 50 | 257 | 0.0 | 6.1 | 0.00 | 0.00 | 0.00 | 40 | 1018.2 |
| 20260502071508 | 48 | 206 | 0.0 | 5.2 | 0.00 | 0.00 | 0.00 | 39 | 1018.1 |
| 20260502070015 | 48 | 290 | 0.0 | 3.5 | 0.00 | 0.00 | 0.00 | 40 | 1017.9 |
| 20260502064506 | 48 | 269 | 0.0 | 11.3 | 0.00 | 0.00 | 0.00 | 40 | 1018.0 |
| 20260502063008 | 48 | 305 | 0.0 | 2.6 | 0.00 | 0.00 | 0.00 | 40 | 1017.8 |
| 20260502061503 | 48 | 318 | 0.9 | 7.0 | 0.00 | 0.00 | 0.00 | 40 | 1017.8 |
| 20260502060101 | 47 | 301 | 1.7 | 7.0 | 0.00 | 0.00 | 0.00 | 44 | 1017.8 |
| 20260502054615 | 47 | 330 | 0.9 | 7.8 | 0.00 | 0.00 | 0.00 | 45 | 1017.8 |
| 20260502053057 | 46 | 311 | 0.0 | 8.7 | 0.00 | 0.00 | 0.00 | 48 | 1017.7 |
| 20260502051556 | 47 | 302 | 0.0 | 6.1 | 0.00 | 0.00 | 0.00 | 48 | 1017.8 |
| 20260502050053 | 47 | 299 | 0.9 | 7.8 | 0.00 | 0.00 | 0.00 | 48 | 1017.7 |
| 20260502044555 | 46 | 264 | 0.0 | 0.9 | 0.00 | 0.00 | 0.00 | 54 | 1017.7 |
| 20260502043048 | 45 | 314 | 0.0 | 4.3 | 0.00 | 0.00 | 0.00 | 54 | 1017.7 |
| 20260502041555 | 44 | 278 | 0.0 | 5.2 | 0.00 | 0.00 | 0.00 | 54 | 1017.6 |
| 20260502040016 | 42 | 268 | 0.0 | 0.0 | 0.00 | 0.00 | 0.00 | 61 | 1017.5 |
| 20260502034521 | 41 | 264 | 0.0 | 0.0 | 0.00 | 0.00 | 0.00 | 61 | 1017.5 |
| 20260502033015 | 40 | 276 | 0.0 | 0.0 | 0.00 | 0.00 | 0.00 | 64 | 1017.4 |
| 20260502031515 | 39 | 287 | 0.0 | 0.0 | 0.00 | 0.00 | 0.00 | 66 | 1017.5 |
| 20260502030013 | 38 | 297 | 0.0 | 0.0 | 0.00 | 0.00 | 0.00 | 66 | 1017.4 |
| 20260502024517 | 38 | 294 | 0.0 | 0.0 | 0.00 | 0.00 | 0.00 | 68 | 1017.3 |
| 20260502023011 | 37 | 293 | 0.0 | 0.0 | 0.00 | 0.00 | 0.00 | 68 | 1017.1 |
| 20260502021510 | 36 | 293 | 0.0 | 0.0 | 0.00 | 0.00 | 0.00 | 70 | 1017.0 |
| 20260502020009 | 34 | 293 | 0.0 | 0.0 | 0.00 | 0.00 | 0.00 | 72 | 1016.9 |
| 20260502014514 | 34 | 299 | 0.0 | 0.0 | 0.00 | 0.00 | 0.00 | 74 | 1016.7 |
| 20260502013006 | 34 | 299 | 0.0 | 0.0 | 0.00 | 0.00 | 0.00 | 74 | 1016.6 |
| 20260502011505 | 34 | 299 | 0.0 | 0.0 | 0.00 | 0.00 | 0.00 | 72 | 1016.5 |
| 20260502010005 | 34 | 299 | 0.0 | 0.0 | 0.00 | 0.00 | 0.00 | 73 | 1016.5 |
| 20260502004502 | 34 | 301 | 0.0 | 0.0 | 0.00 | 0.00 | 0.00 | 75 | 1016.4 |
| 20260502003101 | 34 | 316 | 0.0 | 0.0 | 0.00 | 0.00 | 0.00 | 75 | 1016.3 |
| 20260502001636 | 34 | 316 | 0.0 | 0.0 | 0.00 | 0.00 | 0.00 | 73 | 1016.2 |
| 20260502000115 | 35 | 316 | 0.0 | 0.0 | 0.00 | 0.00 | 0.00 | 72 | 1016.2 |
| 20260501234553 | 35 | 316 | 0.0 | 0.0 | 0.00 | 0.00 | 0.00 | 71 | 1016.1 |
| 20260501233052 | 36 | 316 | 0.0 | 0.0 | 0.00 | 0.00 | 0.00 | 70 | 1016.0 |
| 20260501231549 | 36 | 324 | 0.0 | 0.0 | 0.00 | 0.00 | 0.00 | 68 | 1016.0 |
| 20260501230047 | 37 | 324 | 0.0 | 0.0 | 0.00 | 0.00 | 0.00 | 68 | 1015.9 |
| 20260501224603 | 38 | 324 | 0.0 | 0.0 | 0.00 | 0.00 | 0.00 | 66 | 1016.0 |